WELCOME TO AIR WEST FLIGHT SUPPORT

Slider

THE RIGHT CHOICE FOR THE BEST SERVICE

OUR GOAL IS TO BE THE MOST ACCOMMODATING FBO IN LETHBRIDGE, AB. WITH EFFICIENT AND PROFFESSIONAL SERVICE

 WE HAVE GOT IT ALL!

  • Great Attitude
  • The Right Equipment
  • Large Facilities
  • Competitive Fuel Prices
  • In-House Aircraft Maintenance
  • In-House Flight Training, Aircraft Rentals
  • Aircraft Sales And Much  More!

Facebook By Weblizar Powered By Weblizar

 


We are located at the Lethbridge County Airport (CYQL) on Ramp 2 at the east end of Taxiway C.   Lethbridge is a key point of entry where you can clear customs using
CANPASS.  The Airport is approximately 5 km south of the City of Lethbridge, which offers convenient access to nearby towns such as Cardston, Crowsnest Pass, Coaldale, Fort MacLeod, Milk River, Pincher Creek and Taber.  Lethbridge and its surrounding area is a great tourist destination

 


Click on image to enlarge

Available data for CYQL from the past 2 hours
LETHBRIDGE VOR, AB
Metar
CYQL 200800Z AUTO 24013KT 9SM CLR 04/M02 A2949 RMK SLP995

08:00 UTC

Wind: 240° 13kt

Visibility: 9 SM

Sky:

Temp: 4 deg C / 39.2 deg F

Dewpoint: -2 deg C / 28.4 deg F

Pressure: 29.49 inHg

TAF
TAF CYQL 200539Z 2006/2018 24015G25KT P6SM SCT220 FM201700 25020G30KT P6SM FEW060 RMK FCST BASED ON AUTO OBS. NXT FCST BY 201200Z